Showing default

TIROS 9, 978

Orbit data source: Space-Track

TIROS 9, 978 is a payload satellite owned by GSFC (US) in SSO that was launched on Fri, 22 Jan 1965 UTC via a THOR DELTA C launch vehicle from the Air Force Eastern Test Range (AFETR). Payload-class satellites include a variety of spacecraft equipped with specific instruments for various scientific and technological missions. These include communications satellites like Starlink; space stations such as the ISS; scientific satellites like the Hubble; Earth observation satellites from companies like Planet Labs, Umbra, and HawkEye 360; GPS; miniature CubeSats for education and research; and military/defense satellites.

Loading next visibility...
Identifier
978, 1965-004A
Orbit
SSO
Country
Flag of USUS
Related business
Manufacturer
RCA/East Windsor
Mission
Non-operational spacecraft
Bus & Motor
TIROS I, Unknown motor
Mass
138 kg wet, 138 kg dry
Launch date (UTC)
1965-01-22 (61 years ago)
Launch vehicle
THOR DELTA C
Launch site
Air Force Eastern Test Range (AFETR)
Object type
Payload
Rocket body
Debris
Shape & HBR
Unknown
Radar Cross Section
Medium (>0.1 m² and <1 m²)

Expand to show TLE details & history
Last TLE update: 7 hours ago

TLE from 7 hours ago
0 TIROS 9
1 00978U 65004A   26101.21691830 -.00000103  00000-0 -11458-3 0  9997
2 00978  96.3964 283.7176 1157741 179.7713 180.4133 12.11142830703506
Epoch: 2026-04-11T05:12Z
TLE epoch observation values (Epoch: 2026-04-11T05:12:21.741Z)
Latitude
0.00007°
Longitude
6.1876°
Altitude
2,561.509 km
Speed
6.28 km/s
True Right ascension
18h 54m 52s
True Declination
0° 00' 00"
Sunlit
Object was in daylight at epoch
Visualization orbit readout
Latitude
Unknown
Longitude
Unknown
Altitude
Unknown
Speed
Unknown
Apparent Right ascension
Unknown
Apparent Declination
Unknown
Sunlit
N/A
Visualization observer readout
Local Sidereal Time
18:03:27
Azimuth
Unknown
Elevation
Unknown
Doppler factor
Unknown
Orbital elements
Apogee altitude
2,555.638 km
Perigee altitude
701.679 km
Semi-major axis
8,006.796 km
Eccentricity
0.11577
Inclination
96.3964°
RAAN
283.7176°
Arg. of periapsis
179.7713°
True anomaly
180.32975°
Mean anomaly
180.4133°
Eccentric anomaly
180.37042°
Mean motion
3.02939 °/min
Orbital period
118.84 mins
BSTAR
-0.00011458
Loading maneuver chart data...
Computing Atmospheric mass density...
Loading historical data...
Loading historical data...
Loading historical data...
Loading historical data...
Loading historical data...
Loading historical data...
Loading historical data...
Other satellites on launch #4 in the year 1965 (1965-01-22 UTC)

Documentation

Showing up to 5 results
|